Carolina, PR

8:51 PM AST on February 23, 2017 (GMT -0400)
Luis Munoz Marin International

Weather History for TJSJ - May, 2014

Change the Weather History Date:

Tuesday, May 6, 2014

  Actual Average Record
Temperature  
Mean Temperature 83 °F 81 °F  
Max Temperature 89 °F 87 °F 95 °F (1980)
Min Temperature 77 °F 76 °F 67 °F (1962)
Degree Days  
Heating Degree Days 0 0  
Month to date heating degree days 0 0  
Since 1 July heating degree days 0 0  
Cooling Degree Days 18 16  
Month to date cooling degree days 114 96  
Year to date cooling degree days 2009 1737  
Growing Degree Days 32 (Base 50)    
Moisture  
Dew Point 71 °F    
Average Humidity 75    
Maximum Humidity 94    
Minimum Humidity 55    
Precipitation  
Precipitation 0.06 in 0.19 in 2.82 in (1941)
Month to date precipitation 1.59 1.17  
Year to date precipitation 11.29 13.95  
Sea Level Pressure  
Sea Level Pressure 29.95 in    
Wind  
Wind Speed 4 mph (SSW)    
Max Wind Speed 15 mph    
Max Gust Speed 18 mph    
Visibility 10 miles    
Events Rain    
T = Trace of Precipitation, MM = Missing Value Source: NWS Daily Summary

Daily Weather History Graph

Daily Weather History Graph

Search for Another Location

Airport or City:

Trip Planner

Search our weather history database for the weather conditions in past years. The results will help you decide how hot, cold, wet, or windy it might be!

Date:

Astronomy

May. 06, 2014 Rise Set
Actual Time 5:54 AM AST 6:47 PM AST
Civil Twilight 5:31 AM AST 7:10 PM AST
Nautical Twilight 5:04 AM AST 7:37 PM AST
Astronomical Twilight 4:36 AM AST 8:05 PM AST
Moon 11:57 AM AST (5/6) 12:11 AM AST (5/6)
Length of Visible Light 13h 39m
Length of Day
12h 53m
Waxing Crescent, 46% of the Moon is Illuminated
May 6
Waxing Crescent
May 6
First Quarter
May 14
Full
May 21
Last Quarter
May 28
New

Hourly Weather History & Observations

Time (AST) Temp. Heat Index Dew Point Humidity Pressure Visibility Wind Dir Wind Speed Gust Speed Precip Events Conditions
12:56 AM 77.0 °F - 70.0 °F 79% 29.94 in 10.0 mi South 3.5 mph - 0.01 in   Scattered Clouds
1:56 AM 78.1 °F - 69.1 °F 74% 29.92 in 10.0 mi Calm Calm - N/A   Scattered Clouds
2:56 AM 78.1 °F - 69.1 °F 74% 29.93 in 10.0 mi South 3.5 mph - N/A   Scattered Clouds
3:56 AM 77.0 °F - 70.0 °F 79% 29.92 in 10.0 mi Calm Calm - N/A   Scattered Clouds
7:56 AM 82.0 °F 86.7 °F 72.0 °F 71% 29.96 in 10.0 mi South 4.6 mph - N/A   Scattered Clouds
8:56 AM 84.9 °F 90.7 °F 72.0 °F 65% 29.97 in 10.0 mi SSW 4.6 mph - N/A   Scattered Clouds
9:56 AM 89.1 °F 96.0 °F 72.0 °F 57% 29.97 in 10.0 mi SSW 4.6 mph - N/A   Scattered Clouds
10:56 AM 86.0 °F 91.5 °F 71.1 °F 61% 29.97 in 10.0 mi North 9.2 mph - 0.01 in   Scattered Clouds
11:56 AM 87.1 °F 94.5 °F 73.0 °F 63% 29.96 in 10.0 mi North 10.4 mph - N/A   Scattered Clouds
12:56 PM 86.0 °F 93.0 °F 73.0 °F 65% 29.94 in 10.0 mi North 11.5 mph - N/A   Scattered Clouds
1:56 PM 84.9 °F 92.1 °F 73.9 °F 69% 29.93 in 10.0 mi Variable 4.6 mph - N/A   Scattered Clouds
2:56 PM 82.0 °F 86.7 °F 72.0 °F 71% 29.92 in 10.0 mi SSW 6.9 mph - N/A   Scattered Clouds
4:56 PM 84.9 °F 87.6 °F 66.9 °F 55% 29.92 in 10.0 mi SSW 4.6 mph - N/A   Scattered Clouds
5:56 PM 84.9 °F 89.4 °F 70.0 °F 61% 29.93 in 10.0 mi SSW 3.5 mph - N/A   Scattered Clouds
6:56 PM 84.9 °F 89.4 °F 70.0 °F 61% 29.94 in 10.0 mi Calm Calm - N/A   Mostly Cloudy
7:56 PM 84.0 °F 89.0 °F 71.1 °F 65% 29.96 in 10.0 mi SSE 3.5 mph - N/A   Scattered Clouds
8:56 PM 79.0 °F - 73.9 °F 84% 29.98 in 8.0 mi SW 5.8 mph - 0.05 in Rain Light Rain
9:56 PM 80.1 °F 84.5 °F 73.9 °F 81% 29.98 in 10.0 mi SW 3.5 mph - N/A   Mostly Cloudy
10:56 PM 80.1 °F 84.5 °F 73.9 °F 81% 29.99 in 10.0 mi SW 3.5 mph - N/A   Mostly Cloudy
11:56 PM 80.1 °F 84.2 °F 73.0 °F 79% 29.98 in 10.0 mi SSE 3.5 mph - N/A   Scattered Clouds